Regional Weather Roundup
Issued by NWS

Home | Current Version | Previous Version | Graphics & Text | Print | Product List | Glossary On
Versions: 1 2 3 4 5 6 7 8 9 10 11 12 13 14 15 16 17 18 19 20 21 22 23 24 25 26 27 28 29 30 31 32 33 34 35 36 37 38 39 40 41 42 43 44 45 46 47 48 49 50
000
ASUS45 KCYS 020210
RWRWY

WYOMING REGIONAL WEATHER ROUNDUP
NATIONAL WEATHER SERVICE CHEYENNE WY
800 PM MDT WED APR 01 2015

NOTE:  "FAIR" INDICATES FEW OR NO CLOUDS BELOW 12,000 FEET
WITH NO SIGNIFICANT WEATHER AND/OR OBSTRUCTIONS TO VISIBILITY.

WYZ001-020300-
YELLOWSTONE NATIONAL PARK

CITY           SKY/WX    TMP DP  RH WIND       PRES   REMARKS
LK YELLOWSTONE   N/A     22  17  81 CALM      29.95S
W YELLOWSTONE  NOT AVBL

$$
WYZ002>013-054>058-071-098>099-020300-
NORTHERN WYOMING

CITY           SKY/WX    TMP DP  RH WIND       PRES   REMARKS
JACKSON        PTCLDY    30  23  74 W8        29.97F WCI  23
CODY           FAIR      36  19  51 SW13      29.92S WCI  27
GREYBULL       FAIR      45  16  31 NW18      29.89R
WORLAND        CLOUDY    46  13  26 NW15G22   29.89R
SHERIDAN       CLOUDY    44  11  26 NW21      29.88R
BUFFALO        CLOUDY    40  12  32 N6        29.90R
GILLETTE       FAIR      31  14  49 W8        29.87S WCI  23
HULETT         FAIR      43   9  24 W7        29.87R
NEWCASTLE      FAIR      41  10  28 NW9       29.87R

$$
WYZ014>020-022>026-101>103-020300-
CENTRAL WYOMING

CITY           SKY/WX    TMP DP  RH WIND       PRES   REMARKS
BIG PINEY      FAIR      31   1  28 NW9       29.98R WCI  23
PINEDALE       FAIR      32   9  37 W8        29.98S WCI  25
DUBOIS         FAIR      28  18  64 NW16G22   29.93R WCI  17
LANDER         FAIR      43   3  19 W12       29.89
RIVERTON       FAIR      41   7  24 NW13      29.90R
CASPER         FAIR      40  17  39 NE9       29.88R WCI  34
DOUGLAS        FAIR      40  23  50 NW5       29.88R

$$
WYZ021-027>030-104>119-020300-
SOUTHERN WYOMING

CITY           SKY/WX    TMP DP  RH WIND       PRES   REMARKS
EVANSTON       FAIR      33   3  28 W15       30.00S WCI  23
FORT BRIDGER   FAIR      36   5  27 W10       30.01S WCI  28
ROCK SPRINGS   FAIR      38   1  21 W17G24    29.95S WCI  28
DIXON          FAIR      41   6  23 NW7       29.96R
RAWLINS        FAIR      40   0  18 W23       29.91S WCI  30
SARATOGA       FAIR      36   3  25 NW3       29.93R
LARAMIE        FAIR      38   6  26 N10       29.87R WCI  31
CHEYENNE       FAIR      47  13  25 N17       29.85R
TORRINGTON     FAIR      44  24  45 N12       29.86R
PINE BLUFFS    FAIR      43  28  56 N16       29.86R

$$



USA.gov is the U.S. government's official web portal to all federal, state and local government web resources and services.